Weather History for Burlington, NC

Change the Weather History Date:

Sunday, November 25, 2012

  Actual Average Record
Temperature  
Mean Temperature 35 °F -  
Max Temperature 51 °F 59 °F 78 °F (1973)
Min Temperature 19 °F 34 °F 16 °F (1970)
Degree Days  
Heating Degree Days 30    
Moisture  
Dew Point 20 °F    
Average Humidity 55    
Maximum Humidity 89    
Minimum Humidity 28    
Precipitation  
Precipitation 0.00 in - - ()
Sea Level Pressure  
Sea Level Pressure 30.09 in    
Wind  
Wind Speed 3 mph (SSW)    
Max Wind Speed 9 mph    
Max Gust Speed -    
Visibility 10 miles    
Events      
Averages and records for this station are not official NWS values.
T = Trace of Precipitation, MM = Missing Value Source: NWS Daily Summary

Daily Weather History Graph

Daily Weather History Graph

Search for Another Location

Airport:

Trip Planner

Search our weather history database for the weather conditions in past years. The results will help you decide how hot, cold, wet, or windy it might be!

Date:

Astronomy

Nov. 25, 2012 Rise Set
Actual Time 7:04 AM EST 5:04 PM EST
Civil Twilight 6:37 AM EST 5:32 PM EST
Nautical Twilight 6:05 AM EST 6:04 PM EST
Astronomical Twilight 5:34 AM EST 6:35 PM EST
Moon 3:18 PM EST (11/25) 4:20 AM EST (11/25)
Length of Visible Light 10h 55m
Length of Day
10h 00m
Waxing Gibbous, 93% of the Moon is Illuminated
Nov 25
Waxing Gibbous
Nov 28
Full
Dec 6
Last Quarter
Dec 13
New
Dec 20
First Quarter

Hourly Weather History & Observations

Time (EST) Temp. Windchill Dew Point Humidity Pressure Visibility Wind Dir Wind Speed Gust Speed Precip Events Conditions
12:54 AM 28.0 °F 24.2 °F 18.0 °F 66% 30.12 in 10.0 mi SW 3.5 mph - N/A   Clear
1:54 AM 25.0 °F - 17.1 °F 72% 30.11 in 10.0 mi Calm Calm - N/A   Clear
2:54 AM 24.1 °F - 18.0 °F 77% 30.12 in 10.0 mi Calm Calm - N/A   Clear
3:54 AM 23.0 °F - 17.1 °F 78% 30.11 in 10.0 mi Calm Calm - N/A   Clear
4:54 AM 21.0 °F - 17.1 °F 85% 30.11 in 10.0 mi Calm Calm - N/A   Clear
5:54 AM 19.9 °F - 17.1 °F 89% 30.13 in 10.0 mi Calm Calm - N/A   Clear
6:54 AM 19.9 °F - 15.1 °F 81% 30.14 in 10.0 mi Calm Calm - N/A   Clear
7:54 AM 24.1 °F 18.2 °F 19.9 °F 84% 30.15 in 10.0 mi South 4.6 mph - N/A   Clear
8:54 AM 30.0 °F 23.2 °F 21.9 °F 72% 30.17 in 10.0 mi SW 6.9 mph - N/A   Clear
9:54 AM 36.0 °F 29.6 °F 21.0 °F 55% 30.18 in 10.0 mi WSW 8.1 mph - N/A   Clear
10:54 AM 39.9 °F 35.8 °F 19.9 °F 45% 30.15 in 10.0 mi WSW 5.8 mph - N/A   Clear
11:54 AM 45.0 °F 40.1 °F 21.0 °F 39% 30.12 in 10.0 mi SSW 9.2 mph - N/A   Clear
12:54 PM 46.9 °F - 21.0 °F 36% 30.06 in 10.0 mi SSW 8.1 mph - N/A   Clear
1:54 PM 48.9 °F - 19.9 °F 32% 30.05 in 10.0 mi SSW 9.2 mph - N/A   Clear
2:54 PM 51.1 °F - 19.0 °F 28% 30.03 in 10.0 mi SSW 9.2 mph - N/A   Clear
3:54 PM 51.1 °F - 19.0 °F 28% 30.02 in 10.0 mi SSW 6.9 mph - N/A   Clear
4:54 PM 48.0 °F - 19.9 °F 33% 30.03 in 10.0 mi SSW 5.8 mph - N/A   Clear
5:54 PM 44.1 °F - 21.0 °F 40% 30.04 in 10.0 mi Calm Calm - N/A   Clear
6:54 PM 41.0 °F - 21.0 °F 45% 30.07 in 10.0 mi Calm Calm - N/A   Clear
7:54 PM 42.1 °F 39.2 °F 21.0 °F 43% 30.08 in 10.0 mi SSW 4.6 mph - N/A   Clear
8:54 PM 41.0 °F 36.4 °F 21.9 °F 47% 30.08 in 10.0 mi SSW 6.9 mph - N/A   Clear
9:54 PM 41.0 °F 37.1 °F 21.9 °F 47% 30.07 in 10.0 mi SW 5.8 mph - N/A   Clear
10:54 PM 39.0 °F - 21.9 °F 50% 30.07 in 10.0 mi Calm Calm - N/A   Clear
11:54 PM 37.9 °F 35.5 °F 21.9 °F 53% 30.07 in 10.0 mi SSW 3.5 mph - N/A   Clear